This is the latest recevied weather packets stored in our database for station/object N3WGC-14. If no packets are shown the sender has not sent any weather packets the latest 1 day(s).
| Time | Temp. | Humidity | Pressure | Rain* | Wind** | Luminosity | Snow |
|---|---|---|---|---|---|---|---|
| 1777987732 | 20.56° C | 63% | 1012.6 hPa | 0 mm | 1.34 m/s, 248° | - | - |
| 1777987431 | 20.56° C | 64% | 1012.6 hPa | 0 mm | 0.89 m/s, 243° | - | - |
| 1777987131 | 20° C | 65% | 1012.6 hPa | 0 mm | 0.89 m/s, 163° | - | - |
| 1777986831 | 20° C | 64% | 1012.6 hPa | 0 mm | 2.68 m/s, 254° | - | - |
| 1777986531 | 20° C | 64% | 1012.6 hPa | 0 mm | 2.68 m/s, 257° | - | - |
| 1777986231 | 20° C | 64% | 1012.8 hPa | 0 mm | 2.68 m/s, 247° | - | - |
| 1777985931 | 20.56° C | 63% | 1012.7 hPa | 0 mm | 2.24 m/s, 253° | - | - |
| 1777985630 | 20.56° C | 65% | 1012.7 hPa | 0 mm | 0.89 m/s, 155° | - | - |
| 1777985330 | 20° C | 64% | 1012.8 hPa | 0 mm | 0.45 m/s, 213° | - | - |
| 1777985030 | 20.56° C | 65% | 1012.8 hPa | 0 mm | 0.45 m/s, 95° | - | - |
| 1777984730 | 20.56° C | 66% | 1012.8 hPa | 0 mm | 0 m/s | - | - |
| 1777984430 | 20° C | 65% | 1012.7 hPa | 0 mm | 0 m/s | - | - |
| 1777984130 | 20° C | 65% | 1012.7 hPa | 0 mm | 0.45 m/s, 255° | - | - |
| 1777983830 | 19.44° C | 67% | 1012.5 hPa | 0 mm | 0 m/s | - | - |
| 1777983529 | 18.89° C | 70% | 1012.5 hPa | 0 mm | 0 m/s | - | - |
| 1777983229 | 18.89° C | 71% | 1012.5 hPa | 0 mm | 0.45 m/s, 217° | - | - |
| 1777982929 | 18.33° C | 70% | 1012.4 hPa | 0 mm | 0.89 m/s, 222° | - | - |
| 1777982629 | 18.33° C | 71% | 1012.4 hPa | 0 mm | 0.89 m/s, 318° | - | - |
| 1777982329 | 18.33° C | 71% | 1012.4 hPa | 0 mm | 0.89 m/s, 222° | - | - |
| 1777982029 | 18.33° C | 71% | 1012.3 hPa | 0 mm | 0.45 m/s, 222° | - | - |
| 1777981728 | 18.33° C | 70% | 1012.3 hPa | 0 mm | 0.89 m/s, 113° | - | - |
| 1777981428 | 18.33° C | 71% | 1012.3 hPa | 0 mm | 0.45 m/s, 249° | - | - |
| 1777981128 | 18.33° C | 71% | 1012.3 hPa | 0 mm | 0.45 m/s, 244° | - | - |
| 1777980828 | 18.33° C | 71% | 1012.3 hPa | 0 mm | 0.45 m/s, 279° | - | - |
| 1777980528 | 17.78° C | 71% | 1012.3 hPa | 0 mm | 0.89 m/s, 275° | - | - |
* Rain latest hour (hover to see other rain measurements)
** Current wind speed in m/s (hover to see current wind gust speed)